Location: Cazarilh
(42.9578°N, 0.5819°E)
Time: 02:08:14
(UTC+00:00)

Cosmos 1500 - Pass Details

Date: 11 December 2019
Orbit: 499 x 521 km, 82.5° (Epoch: 22 January)

Event Time Altitude Azimuth Distance (km) Brightness Sun altitude
Rises 06:02:22 0° 184° (S) 2,630 7.0 -13.4°
Reaches altitude 10° 06:04:30 10° 183° (S) 1,746 6.1 -13.0°
Maximum altitude 06:08:19 80° 97° (E) 531 3.3 -12.4°
Drops below altitude 10° 06:12:10 10° 10° (N) 1,752 5.8 -11.7°
Sets 06:14:18 0° 10° (N) 2,640 6.7 -11.3°
